Regional Weather Roundup
Issued by NWS

Home | Current Version | Previous Version | Graphics & Text | Print | Product List | Glossary On
Versions: 1 2 3 4 5 6 7 8 9 10 11 12 13 14 15 16 17 18 19 20 21 22 23 24 25 26 27
000
ASUS45 KBOI 261710
RWRID

IDAHO REGIONAL WEATHER ROUNDUP
NATIONAL WEATHER SERVICE BOISE ID
1100 AM MDT FRI AUG 26 2016

NOTE: "FAIR" INDICATES FEW OR NO CLOUDS BELOW 12000 FEET
WITH NO SIGNIFICANT WEATHER AND/OR OBSTRUCTIONS TO VISIBILITY

IDZ012-014-261800-
SOUTHWEST IDAHO


CITY           SKY/WX    TMP DP  RH WIND       PRES   REMARKS
BOISE          MOSUNNY   72  34  24 SE6       30.01R
CALDWELL       MOSUNNY   70  43  37 VRB3      30.01R
MOUNTAIN HOME  MOSUNNY   70  35  28 E3        30.02R
$$

IDZ016-017-261800-
SOUTHCENTRAL IDAHO


CITY           SKY/WX    TMP DP  RH WIND       PRES   REMARKS
BURLEY         SUNNY     64  39  39 MISG      30.05S
JEROME         MOSUNNY   66  37  34 S6        30.05S
TWIN FALLS     MOSUNNY   70  33  25 NW7       30.05S
$$

IDZ019>023-261800-
SOUTHEAST IDAHO


CITY           SKY/WX    TMP DP  RH WIND       PRES   REMARKS
IDAHO FALLS    CLOUDY    65  36  34 S5        30.08S
POCATELLO      PTSUNNY   63  35  35 SW8       30.07S
REXBURG        SUNNY     66  35  31 VRB3      30.08S
$$

IDZ006-010-011-018-031-032-261800-
CENTRAL IDAHO MOUNTAINS


CITY           SKY/WX    TMP DP  RH WIND       PRES   REMARKS
MCCALL         SUNNY     66  33  29 VRB3      30.08S
HAILEY         MOSUNNY   64  36  34 NW5       30.11S
STANLEY          N/A     57  31  37 N3        30.16F
SALMON         MOSUNNY   61  36  39 NW3       30.09F
CHALLIS        SUNNY     62  29  28 CALM      30.10F
$$

IDZ002-004-006-007-026-261800-
NORTHERN IDAHO


CITY           SKY/WX    TMP DP  RH WIND       PRES   REMARKS
LEWISTON       MOSUNNY   70  38  31 N6        29.99F
LOWELL           N/A     62  41  46 CALM      30.04F
COEUR D`ALENE  SUNNY     72  46  40 NE6       30.01S
MULLAN PASS    SUNNY     56  37  49 VRB3      30.16S
$$




USA.gov is the U.S. government's official web portal to all federal, state and local government web resources and services.